| time (UTC) | temp F | wind direction | speed MPH | gust MPH | rain 1hr in | rain 24hr in | rain mn in | humidity % | barometer mb |
| 20260503053017 | 49 | 357 | 1.0 | 4.0 | 0.22 | 0.79 | 0.76 | 96 | 1010.7 |
| 20260503051511 | 49 | 8 | 0.0 | 2.0 | 0.20 | 0.74 | 0.71 | 96 | 1010.7 |
| 20260503050012 | 49 | 8 | 0.0 | 5.0 | 0.17 | 0.68 | 0.65 | 96 | 1010.7 |
| 20260503044508 | 49 | 13 | 0.0 | 4.0 | 0.12 | 0.62 | 0.59 | 96 | 1010.8 |
| 20260503043007 | 49 | 11 | 0.0 | 3.0 | 0.12 | 0.56 | 0.54 | 96 | 1010.8 |
| 20260503041506 | 49 | 10 | 0.0 | 2.0 | 0.13 | 0.54 | 0.51 | 96 | 1010.8 |
| 20260503040010 | 49 | 8 | 0.0 | 3.0 | 0.14 | 0.51 | 0.48 | 96 | 1010.9 |
| 20260503034504 | 50 | 18 | 0.0 | 1.0 | 0.16 | 0.49 | 0.46 | 96 | 1010.8 |
| 20260503033001 | 50 | 12 | 0.0 | 4.0 | 0.16 | 0.45 | 0.42 | 96 | 1010.8 |
| 20260503031600 | 50 | 2 | 0.0 | 3.0 | 0.15 | 0.41 | 0.38 | 95 | 1010.9 |
| 20260503030106 | 51 | 7 | 0.0 | 1.0 | 0.16 | 0.38 | 0.35 | 95 | 1010.7 |
| 20260503024601 | 51 | 354 | 0.0 | 2.0 | 0.13 | 0.33 | 0.30 | 95 | 1010.8 |
| 20260503023100 | 51 | 11 | 0.0 | 2.0 | 0.12 | 0.28 | 0.26 | 95 | 1010.8 |
| 20260503021557 | 51 | 4 | 0.0 | 1.0 | 0.11 | 0.26 | 0.23 | 95 | 1010.8 |
| 20260503014556 | 51 | 10 | 0.0 | 1.0 | 0.11 | 0.20 | 0.17 | 95 | 1011.1 |
| 20260503013059 | 51 | 360 | 0.0 | 1.0 | 0.09 | 0.17 | 0.14 | 95 | 1011.2 |
| 20260503011552 | 51 | 9 | 0.0 | 0.0 | 0.07 | 0.14 | 0.11 | 95 | 1011.4 |
| 20260503010046 | 51 | 11 | 0.0 | 0.0 | 0.06 | 0.12 | 0.09 | 94 | 1011.4 |
| 20260503004547 | 51 | 14 | 0.0 | 0.0 | 0.05 | 0.09 | 0.06 | 94 | 1011.5 |
| 20260503003048 | 51 | 7 | 0.0 | 1.0 | 0.04 | 0.08 | 0.05 | 94 | 1011.6 |
| 20260503001547 | 51 | 1 | 0.0 | 0.0 | 0.04 | 0.07 | 0.04 | 93 | 1011.8 |
| 20260503000046 | 52 | 25 | 0.0 | 1.0 | 0.03 | 0.06 | 0.03 | 92 | 1011.9 |
| 20260502234550 | 52 | 351 | 0.0 | 0.0 | 0.04 | 0.06 | 0.01 | 91 | 1011.9 |
| 20260502233034 | 52 | 77 | 0.0 | 0.0 | 0.04 | 0.06 | 0.01 | 91 | 1012.0 |
| 20260502231533 | 53 | 82 | 0.0 | 0.0 | 0.03 | 0.05 | 0.00 | 89 | 1012.0 |
| 20260502230030 | 53 | 83 | 0.0 | 0.0 | 0.03 | 0.05 | 0.00 | 87 | 1011.9 |
| 20260502224528 | 54 | 79 | 0.0 | 1.0 | 0.00 | 0.02 | 0.02 | 85 | 1011.9 |
| 20260502223037 | 54 | 80 | 0.0 | 0.0 | 0.00 | 0.02 | 0.02 | 84 | 1012.0 |
| 20260502221525 | 54 | 86 | 0.0 | 0.0 | 0.00 | 0.02 | 0.02 | 85 | 1012.1 |
| 20260502220026 | 54 | 65 | 0.0 | 0.0 | 0.00 | 0.02 | 0.02 | 84 | 1012.0 |
| 20260502214524 | 54 | 30 | 0.0 | 0.0 | 0.00 | 0.02 | 0.02 | 84 | 1012.1 |
| 20260502213024 | 54 | 30 | 0.0 | 0.0 | 0.00 | 0.02 | 0.02 | 84 | 1012.1 |
| 20260502211531 | 54 | 79 | 0.0 | 0.0 | 0.00 | 0.02 | 0.02 | 84 | 1012.2 |
| 20260502210022 | 54 | 79 | 0.0 | 0.0 | 0.00 | 0.02 | 0.02 | 84 | 1012.3 |
| 20260502204534 | 54 | 79 | 0.0 | 0.0 | 0.00 | 0.02 | 0.02 | 84 | 1012.3 |
| 20260502203026 | 54 | 80 | 0.0 | 0.0 | 0.00 | 0.02 | 0.02 | 84 | 1012.3 |
| 20260502201520 | 55 | 66 | 0.0 | 0.0 | 0.00 | 0.02 | 0.02 | 83 | 1012.3 |
| 20260502200020 | 55 | 82 | 0.0 | 0.0 | 0.00 | 0.02 | 0.02 | 83 | 1012.3 |
| 20260502194526 | 55 | 75 | 0.0 | 0.0 | 0.00 | 0.02 | 0.02 | 83 | 1012.3 |
| 20260502193021 | 55 | 75 | 0.0 | 1.0 | 0.00 | 0.02 | 0.02 | 83 | 1012.4 |
| 20260502191518 | 56 | 72 | 0.0 | 0.0 | 0.00 | 0.02 | 0.02 | 82 | 1012.4 |
| 20260502190021 | 56 | 77 | 0.0 | 0.0 | 0.00 | 0.02 | 0.02 | 81 | 1012.3 |
| 20260502184518 | 57 | 77 | 0.0 | 1.0 | 0.00 | 0.02 | 0.02 | 80 | 1012.2 |
| 20260502183016 | 57 | 80 | 0.0 | 1.0 | 0.00 | 0.02 | 0.02 | 79 | 1012.2 |
| 20260502181515 | 58 | 87 | 0.0 | 0.0 | 0.00 | 0.02 | 0.02 | 79 | 1012.2 |
| 20260502163029 | 61 | 79 | 0.0 | 1.0 | 0.00 | 0.02 | 0.02 | 72 | 1012.3 |
| 20260502161519 | 62 | 85 | 0.0 | 1.0 | 0.00 | 0.02 | 0.02 | 71 | 1012.5 |
| 20260502151504 | 63 | 305 | 0.0 | 0.0 | 0.00 | 0.02 | 0.02 | 67 | 1012.9 |
| 20260502123107 | 64 | 145 | 0.0 | 1.0 | 0.00 | 0.03 | 0.02 | 62 | 1013.8 |
| 20260502121542 | 65 | 316 | 0.0 | 1.0 | 0.00 | 0.03 | 0.02 | 62 | 1013.8 |
| 20260502114536 | 64 | 333 | 0.0 | 1.0 | 0.00 | 0.07 | 0.02 | 66 | 1014.1 |
| 20260502113044 | 64 | 94 | 0.0 | 0.0 | 0.00 | 0.07 | 0.02 | 67 | 1014.1 |
| 20260502111536 | 62 | 86 | 0.0 | 3.0 | 0.00 | 0.07 | 0.02 | 70 | 1014.2 |
| 20260502110031 | 63 | 305 | 0.0 | 1.0 | 0.00 | 0.07 | 0.02 | 68 | 1014.2 |
| 20260502104533 | 63 | 309 | 0.0 | 3.0 | 0.00 | 0.08 | 0.02 | 70 | 1014.2 |
| 20260502103027 | 62 | 314 | 0.0 | 1.0 | 0.00 | 0.08 | 0.02 | 72 | 1014.2 |
| 20260502101525 | 61 | 307 | 0.0 | 1.0 | 0.00 | 0.08 | 0.02 | 74 | 1014.3 |
| 20260502091515 | 60 | 354 | 0.0 | 4.0 | 0.00 | 0.08 | 0.02 | 79 | 1014.6 |
| 20260502070111 | 53 | 148 | 0.0 | 3.0 | 0.00 | 0.08 | 0.02 | 91 | 1014.7 |
| 20260502064555 | 52 | 210 | 0.0 | 1.0 | 0.00 | 0.08 | 0.02 | 94 | 1014.9 |
| 20260502063055 | 50 | 199 | 0.0 | 0.0 | 0.00 | 0.08 | 0.02 | 94 | 1014.8 |
| 20260502061554 | 49 | 198 | 0.0 | 0.0 | 0.00 | 0.08 | 0.02 | 94 | 1014.8 |
| 20260502060054 | 49 | 198 | 0.0 | 0.0 | 0.00 | 0.08 | 0.02 | 94 | 1014.9 |
| 20260502054552 | 48 | 200 | 0.0 | 0.0 | 0.00 | 0.08 | 0.02 | 94 | 1014.9 |